Showing default

LASARSAT, 62391

Orbit data source: Space-Track

LASARSAT, 62391 is a Czech payload satellite in LEO that was launched on Sat, 21 Dec 2024 UTC via an FALCON 9 launch vehicle from the Air Force Western Test Range (AFWTR). Payload-class satellites include a variety of spacecraft equipped with specific instruments for various scientific and technological missions. These include communications satellites like Starlink; space stations such as the ISS; scientific satellites like the Hubble; Earth observation satellites from companies like Planet Labs, Umbra, and HawkEye 360; GPS; miniature CubeSats for education and research; and military/defense satellites.

Loading next visibility...
Identifier
62391, 2024-247Q
Orbit
LEO
Country
Flag of CZCZ / CZE
Related business
None
Manufacturer
LASAR
Mission
Operational Amateur Technology
Bus & Motor
CUBESAT 1U, Unknown motor
Mass
1 kg wet, 1 kg dry
Launch date (UTC)
2024-12-21 (1 year ago)
Launch vehicle
FALCON 9
Launch site
Air Force Western Test Range (AFWTR)
Object type
Payload
Rocket body
Debris
Shape & HBR
Box, 0.1 m
Radar Cross Section
0.015 m², Medium (>0.1 m² and < 1m²)

Expand to show TLE details & history
Last TLE update: 17 hours ago

TLE from 17 hours ago
0 LASARSAT
1 62391U 24247Q   26171.27059198  .00028493  00000-0  56523-3 0  9998
2 62391  44.9733 244.8864 0007836 348.4451  11.6258 15.46534749 83790
Epoch: 2026-06-20T06:29Z
TLE epoch observation values (Epoch: 2026-06-20T06:29:39.147Z)
Latitude
Longitude
-121.01433°
Altitude
421.646 km
Speed
7.663 km/s
True Right ascension
16h 19m 32s
True Declination
0° 00' 00"
Sunlit
Object was in full shadow at epoch
Visualization orbit readout
Latitude
Unknown
Longitude
Unknown
Altitude
Unknown
Speed
Unknown
Apparent Right ascension
Unknown
Apparent Declination
Unknown
Sunlit
N/A
Visualization observer readout
Local Sidereal Time
10:17:59
Azimuth
Unknown
Elevation
Unknown
Doppler factor
Unknown
Orbital elements
Apogee altitude
433.833 km
Perigee altitude
423.166 km
Semi-major axis
6,806.636 km
Eccentricity
0.00078
Inclination
44.9733°
RAAN
244.8864°
Arg. of periapsis
348.4451°
True anomaly
11.64391°
Mean anomaly
11.6258°
Eccentric anomaly
11.63485°
Mean motion
3.86495 °/min
Orbital period
93.14 mins
BSTAR
0.00056523
Loading maneuver chart data...
Computing Atmospheric mass density...
Loading historical data...
Loading historical data...
Loading historical data...
Loading historical data...
Loading historical data...
Loading historical data...
Loading historical data...

Documentation

Showing up to 5 results
|